Weather History for Antigo, WI

Change the Weather History Date:

Tuesday, February 12, 2013

  Actual Average Record
Temperature  
Mean Temperature 16 °F -  
Max Temperature 21 °F 24 °F 45 °F (1974)
Min Temperature 12 °F 2 °F -38 °F (1967)
Degree Days  
Heating Degree Days 48    
Moisture  
Dew Point 14 °F    
Average Humidity 83    
Maximum Humidity 96    
Minimum Humidity 72    
Precipitation  
Precipitation 0.00 in - - ()
Sea Level Pressure  
Sea Level Pressure 29.85 in    
Wind  
Wind Speed 11 mph (WSW)    
Max Wind Speed 16 mph    
Max Gust Speed 25 mph    
Visibility 10 miles    
Events Snow    
Averages and records for this station are not official NWS values.
T = Trace of Precipitation, MM = Missing Value Source: NWS Daily Summary

Daily Weather History Graph

Daily Weather History Graph

Search for Another Location

Airport:

Trip Planner

Search our weather history database for the weather conditions in past years. The results will help you decide how hot, cold, wet, or windy it might be!

Date:

Astronomy

Feb. 12, 2013 Rise Set
Actual Time 7:01 AM CST 5:20 PM CST
Civil Twilight 6:31 AM CST 5:50 PM CST
Nautical Twilight 5:56 AM CST 6:25 PM CST
Astronomical Twilight 5:22 AM CST 6:59 PM CST
Moon 7:49 AM CST (2/12) 8:32 PM CST (2/12)
Length of Visible Light 11h 19m
Length of Day
10h 18m
Waxing Crescent, 7% of the Moon is Illuminated
Feb 12
Waxing Crescent
Feb 17
First Quarter
Feb 25
Full
Mar 4
Last Quarter
Mar 11
New

Hourly Weather History & Observations

Time (CST) Temp. Windchill Dew Point Humidity Pressure Visibility Wind Dir Wind Speed Gust Speed Precip Events Conditions
12:15 AM 20.7 °F 7.1 °F 15.6 °F 81% 29.87 in 7.0 mi WNW 15.0 mph 25.3 mph N/A Snow Light Snow
12:35 AM 20.3 °F 7.7 °F 15.8 °F 83% 29.87 in 7.0 mi WNW 12.7 mph 21.9 mph N/A Snow Light Snow
12:55 AM 20.3 °F 8.3 °F 16.2 °F 84% 29.87 in 7.0 mi WNW 11.5 mph 18.4 mph N/A Snow Light Snow
1:15 AM 20.3 °F 6.6 °F 15.8 °F 83% 29.86 in 10.0 mi NW 15.0 mph 21.9 mph N/A   Overcast
1:35 AM 20.3 °F 9.8 °F 16.2 °F 84% 29.87 in 10.0 mi WNW 9.2 mph 16.1 mph N/A Snow Light Snow
1:55 AM 20.3 °F 6.6 °F 16.2 °F 84% 29.87 in 10.0 mi WNW 15.0 mph 24.2 mph N/A   Overcast
2:15 AM 20.3 °F 8.3 °F 16.5 °F 85% 29.88 in 10.0 mi WNW 11.5 mph - N/A Snow Light Snow
2:35 AM 19.9 °F 5.7 °F 15.8 °F 84% 29.88 in 10.0 mi WNW 16.1 mph - N/A   Overcast
2:55 AM 19.8 °F 7.7 °F 15.6 °F 84% 29.88 in 10.0 mi NW 11.5 mph - N/A   Overcast
3:15 AM 19.4 °F 6.6 °F 15.6 °F 85% 29.88 in 10.0 mi WNW 12.7 mph 16.1 mph N/A   Overcast
3:35 AM 19.4 °F 8.6 °F 15.6 °F 85% 29.89 in 10.0 mi WNW 9.2 mph 18.4 mph N/A   Overcast
3:55 AM 19.4 °F 8.6 °F 15.8 °F 86% 29.90 in 10.0 mi West 9.2 mph - N/A Snow Light Snow
4:15 AM 19.4 °F 7.2 °F 15.8 °F 86% 29.90 in 10.0 mi West 11.5 mph - N/A Snow Light Snow
4:35 AM 19.2 °F 7.0 °F 15.4 °F 85% 29.90 in 10.0 mi WNW 11.5 mph 17.3 mph N/A Snow Light Snow
4:55 AM 19.2 °F 7.0 °F 15.4 °F 85% 29.91 in 10.0 mi West 11.5 mph - N/A Snow Light Snow
5:15 AM 19.0 °F 6.8 °F 15.3 °F 85% 29.91 in 10.0 mi West 11.5 mph 17.3 mph N/A Snow Light Snow
5:35 AM 18.5 °F 6.8 °F 14.7 °F 85% 29.91 in 10.0 mi West 10.4 mph - N/A   Overcast
5:55 AM 18.5 °F 7.5 °F 14.7 °F 85% 29.91 in 10.0 mi West 9.2 mph - N/A   Overcast
6:15 AM 18.5 °F 7.5 °F 14.9 °F 86% 29.91 in 10.0 mi West 9.2 mph - N/A   Overcast
6:35 AM 18.5 °F 7.5 °F 15.1 °F 86% 29.91 in 10.0 mi West 9.2 mph - N/A   Overcast
6:55 AM 18.5 °F 5.5 °F 14.9 °F 86% 29.91 in 10.0 mi West 12.7 mph - N/A   Overcast
7:15 AM 18.5 °F 6.8 °F 14.2 °F 83% 29.91 in 10.0 mi West 10.4 mph - N/A   Overcast
7:35 AM 18.5 °F 6.8 °F 14.7 °F 85% 29.92 in 10.0 mi WSW 10.4 mph - N/A   Overcast
7:55 AM 18.0 °F 6.1 °F 14.7 °F 87% 29.92 in 10.0 mi West 10.4 mph - N/A Snow Light Snow
8:15 AM 17.6 °F 5.0 °F 14.0 °F 86% 29.92 in 10.0 mi West 11.5 mph - N/A Snow Light Snow
8:35 AM 17.6 °F 5.0 °F 14.0 °F 86% 29.92 in 10.0 mi West 11.5 mph - N/A Snow Light Snow
8:55 AM 17.2 °F 6.0 °F 13.8 °F 86% 29.92 in 7.0 mi West 9.2 mph - N/A Snow Light Snow
9:15 AM 17.6 °F 5.7 °F 14.0 °F 86% 29.93 in 7.0 mi West 10.4 mph - N/A Snow Light Snow
9:35 AM 17.8 °F 6.6 °F 13.3 °F 83% 29.93 in 7.0 mi West 9.2 mph - N/A Snow Light Snow
9:55 AM 18.1 °F 5.6 °F 12.9 °F 80% 29.93 in 10.0 mi West 11.5 mph - N/A Snow Light Snow
10:15 AM 18.1 °F 6.3 °F 12.9 °F 80% 29.92 in 7.0 mi West 10.4 mph 16.1 mph N/A Snow Light Snow
10:35 AM 18.5 °F 5.5 °F 12.2 °F 76% 29.92 in 10.0 mi West 12.7 mph - N/A Snow Light Snow
10:55 AM 18.7 °F 5.7 °F 12.6 °F 77% 29.92 in 10.0 mi West 12.7 mph - N/A   Overcast
11:15 AM 19.6 °F 5.7 °F 12.6 °F 74% 29.91 in 10.0 mi WSW 15.0 mph 19.6 mph N/A   Overcast
11:35 AM 19.9 °F 7.9 °F 12.4 °F 72% 29.90 in 10.0 mi WSW 11.5 mph - N/A   Overcast
11:55 AM 19.6 °F 8.1 °F 12.0 °F 72% 29.88 in 10.0 mi WSW 10.4 mph - N/A   Overcast
12:15 PM 19.2 °F 6.4 °F 12.2 °F 74% 29.87 in 10.0 mi WSW 12.7 mph - N/A   Overcast
12:35 PM 19.9 °F 6.7 °F 12.9 °F 74% 29.86 in 10.0 mi West 13.8 mph 18.4 mph N/A   Overcast
12:55 PM 21.2 °F 10.9 °F 13.3 °F 72% 29.86 in 10.0 mi West 9.2 mph - N/A   Overcast
1:15 PM 20.8 °F 8.4 °F 13.5 °F 73% 29.86 in 10.0 mi WSW 12.7 mph - N/A   Overcast
1:35 PM 20.3 °F 7.2 °F 13.1 °F 74% 29.86 in 10.0 mi SW 13.8 mph - N/A   Mostly Cloudy
1:55 PM 20.3 °F 8.3 °F 13.3 °F 74% 29.85 in 10.0 mi SW 11.5 mph - N/A   Scattered Clouds
2:15 PM 20.5 °F 10.0 °F 13.3 °F 74% 29.85 in 10.0 mi WSW 9.2 mph - N/A   Scattered Clouds
2:35 PM 20.8 °F 9.7 °F 13.3 °F 73% 29.84 in 10.0 mi WSW 10.4 mph - N/A   Clear
2:55 PM 21.2 °F 10.9 °F 13.8 °F 73% 29.84 in 10.0 mi WSW 9.2 mph - N/A   Clear
3:15 PM 21.2 °F 10.1 °F 14.2 °F 74% 29.83 in 10.0 mi WSW 10.4 mph - N/A   Clear
3:35 PM 21.0 °F 9.3 °F 14.4 °F 75% 29.83 in 10.0 mi WSW 11.5 mph - N/A   Clear
3:55 PM 21.2 °F 10.1 °F 14.7 °F 76% 29.83 in 10.0 mi SW 10.4 mph - N/A   Clear
4:15 PM 21.2 °F 10.1 °F 14.7 °F 76% 29.81 in 10.0 mi WSW 10.4 mph - N/A   Clear
4:35 PM 21.0 °F 9.9 °F 14.9 °F 77% 29.81 in 10.0 mi SW 10.4 mph - N/A   Clear
4:55 PM 20.3 °F 9.8 °F 14.5 °F 78% 29.81 in 10.0 mi WSW 9.2 mph - N/A   Clear
5:15 PM 20.3 °F 11.5 °F 14.4 °F 78% 29.82 in 10.0 mi SW 6.9 mph - N/A   Clear
5:35 PM 19.0 °F 10.0 °F 13.8 °F 80% 29.81 in 10.0 mi SW 6.9 mph - N/A   Clear
5:55 PM 17.2 °F 8.9 °F 12.7 °F 83% 29.81 in 10.0 mi SW 5.8 mph - N/A   Clear
6:15 PM 14.4 °F 6.9 °F 10.9 °F 86% 29.81 in 10.0 mi SSW 4.6 mph - N/A   Scattered Clouds
6:35 PM 16.9 °F 9.8 °F 12.9 °F 84% 29.80 in 10.0 mi SSW 4.6 mph - N/A   Scattered Clouds
6:55 PM 16.2 °F 10.6 °F 12.4 °F 85% 29.80 in 10.0 mi SSW 3.5 mph - N/A   Clear
7:15 PM 14.5 °F 7.1 °F 11.3 °F 87% 29.80 in 10.0 mi SSW 4.6 mph - N/A   Clear
7:35 PM 12.0 °F 5.9 °F 9.5 °F 90% 29.79 in 10.0 mi SSW 3.5 mph - N/A   Clear
8:15 PM 13.5 °F - 12.0 °F 94% 29.78 in 10.0 mi Calm Calm - N/A   Clear
8:35 PM 14.9 °F 9.2 °F 12.7 °F 91% 29.78 in 10.0 mi SW 3.5 mph - N/A   Clear
8:55 PM 14.9 °F 6.1 °F 13.1 °F 93% 29.78 in 10.0 mi WSW 5.8 mph - N/A   Clear
9:15 PM 15.6 °F 7.0 °F 13.1 °F 90% 29.77 in 10.0 mi WSW 5.8 mph - N/A   Clear
9:35 PM 14.9 °F 5.0 °F 12.9 °F 92% 29.76 in 10.0 mi SW 6.9 mph - N/A   Clear
9:55 PM 15.4 °F 4.6 °F 13.3 °F 91% 29.75 in 10.0 mi SW 8.1 mph - N/A   Clear
10:15 PM 16.3 °F 6.7 °F 13.8 °F 90% 29.75 in 10.0 mi WSW 6.9 mph - N/A   Clear
10:35 PM 16.5 °F 6.9 °F 14.4 °F 91% 29.74 in 10.0 mi WSW 6.9 mph - N/A   Clear
10:55 PM 16.3 °F 7.8 °F 14.7 °F 93% 29.74 in 10.0 mi WSW 5.8 mph - N/A   Clear
11:15 PM 16.0 °F 10.4 °F 14.2 °F 93% 29.74 in 10.0 mi West 3.5 mph - N/A   Clear
11:35 PM 16.3 °F 10.8 °F 15.4 °F 96% 29.73 in 7.0 mi SW 3.5 mph - N/A   Clear
11:55 PM 12.6 °F 3.4 °F 11.3 °F 95% 29.72 in 5.0 mi WSW 5.8 mph - N/A   Clear